Location: Düngen
(52.0952°N, 10.0219°E)
Time: 18:45:22
(UTC+00:00)

Cosmos 44 Rocket - Pass Details

Date: 11 March 2026
Orbit: 631 x 746 km, 65.1° (Epoch: 20 April)

Event Time Altitude Azimuth Distance (km) Brightness Sun altitude
Rises 18:16:40 0° 317° (NW) 3,184 7.6 -9.9°
Reaches altitude 10° 18:19:08 10° 323° (NW) 2,266 6.6 -10.3°
Maximum altitude 18:24:10 47° 38° (NE) 985 3.9 -11.1°
Enters shadow 18:28:08 16° 108° (ESE) 1,891 4.9 -11.7°
